View from above orbital plane
|
View from above satellite
|
Ground track
|
The orbit data is extracted from the following two-line orbital elements,
1 13121U 82027B 21015.55410725 -.00000234 00000-0 -16293-4 0 9991
2 13121 81.1656 55.3454 0009761 61.7266 298.4942 15.09036538113973
Epoch (UTC): | 15 January 2021 13:17:54 |
Eccentricity: | 0.0009761 |
inclination: | 81.1656° |
perigee height: | 532 km |
apogee height: | 546 km |
right ascension of ascending node: | 55.3454° |
argument of perigee: | 61.7266° |
revolutions per day: | 15.09036538 |
mean anomaly at epoch: | 298.4942° |
orbit number at epoch: | 11397 |
The dashed part of the orbit path shows where the satellite is in the earth's shadow,
|
|